Torna al catalogo

COSMOS 1375 DEB

AttivoLEO
NORAD 17803·DEBRIS·🇷🇺 Russia

Lanciato Jun 6, 1982 da Plesetsk Cosmodrome

Loading…

Prossimi Passaggi (prossime 24 ore)

TLE

AggiornatoSource: Space-Track

Epoca: Sep 14, 2026, 06:32 UTC

1 17803U 82055AV  26257.27255838  .00000061  00000-0  13419-3 0  9999
2 17803  65.8348   6.1104 0044552 194.1879 190.1546 13.80941723 56191

Traccia COSMOS 1375 DEB in tempo reale con AllMySat

Download on the App Store